User: anonymous   Login
Location: Bakov nad Jizerou
(50.4784°N, 14.9394°E)
Time: 22:19:58
(UTC+00:00)
Language:

SPOT 5 - Orbit

View from above orbital plane
View from above orbital plane
View from above satellite
View from above satellite

Ground track
Ground track

The orbit data is extracted from the following two-line orbital elements,

1 27421U 02021A   21266.46789763  .00000050  00000-0  22494-4 0  9998
2 27421  98.2225 335.1980 0134079 220.9965 138.1078 14.52120323 11959
Epoch (UTC): 23 September 2021 11:13:46
Eccentricity: 0.0134079
inclination: 98.2225°
perigee height: 623 km
apogee height: 814 km
right ascension of ascending node: 335.1980°
argument of perigee: 220.9965°
revolutions per day: 14.52120323
mean anomaly at epoch: 138.1078°
orbit number at epoch: 1195

The dashed part of the orbit path shows where the satellite is in the earth's shadow,  

DLR